FW0115 Weather Reports


Display with metric or nautical units.
time (UTC)temp
F
wind
direction
speed
MPH
gust
MPH
rain 1hr
in
rain 24hr
in
rain mn
in
humidity
%
barometer
mb
20221003055103 44 270 0.0 0.0 0.00 0.00 0.00 96 1019.3
20221003054102 45 270 0.0 0.0 0.00 0.00 0.00 95 1019.3
20221003052902 45 270 0.0 0.0 0.00 0.00 0.00 95 1019.3
20221003051803 46 270 0.0 0.0 0.00 0.00 0.00 95 1019.3
20221003050503 46 270 0.0 0.0 0.00 0.00 0.00 95 1019.0
20221003045402 47 270 0.0 0.0 0.00 0.00 0.00 93 1019.0
20221003044303 48 270 0.0 0.0 0.00 0.00 0.00 91 1019.3
20221003042902 49 270 0.0 0.0 0.00 0.00 0.00 93 1019.0
20221003041803 50 270 0.0 0.0 0.00 0.00 0.00 91 1018.6
20221003040702 51 270 0.0 0.0 0.00 0.00 0.00 90 1018.6
20221003035602 52 315 0.0 1.0 0.00 0.00 0.00 88 1018.6
20221003034503 52 270 0.0 0.0 0.00 0.00 0.00 88 1018.6
20221003033402 53 293 0.0 1.0 0.00 0.00 0.00 88 1018.6
20221003032305 53 315 1.0 1.0 0.00 0.00 0.00 90 1018.6
20221003031203 53 293 0.0 0.0 0.00 0.00 0.00 90 1018.3
20221003025003 53 270 0.0 0.0 0.00 0.00 0.00 90 1018.3
20221003023902 54 270 0.0 0.0 0.00 0.00 0.00 86 1018.3
20221003022802 55 270 0.0 0.0 0.00 0.00 0.00 83 1017.9
20221003021703 56 270 0.0 0.0 0.00 0.00 0.00 79 1017.9
20221003020502 59 270 0.0 0.0 0.00 0.00 0.00 76 1017.9
20221003014203 62 270 0.0 0.0 0.00 0.00 0.00 70 1017.6
20221003013103 63 338 0.0 1.0 0.00 0.00 0.00 66 1017.3
20221003012004 64 0 1.0 2.0 0.00 0.00 0.00 65 1017.3
20221003010903 66 0 1.0 1.0 0.00 0.00 0.00 63 1017.3
20221003005802 68 45 1.0 1.0 0.00 0.00 0.00 60 1016.9
20221003004703 70 45 0.0 3.0 0.00 0.00 0.00 58 1016.9
20221003003603 71 45 1.0 4.0 0.00 0.00 0.00 56 1016.9
20221003002503 71 338 2.0 5.0 0.00 0.00 0.00 55 1016.9
20221003001403 72 23 3.0 3.0 0.00 0.00 0.00 54 1016.6
20221002234004 75 0 2.0 5.0 0.00 0.00 0.00 49 1016.3
20221002231703 76 0 4.0 8.0 0.00 0.00 0.00 48 1016.3
20221002230604 76 23 5.0 7.0 0.00 0.00 0.00 49 1016.3
20221002225503 76 0 7.0 7.0 0.00 0.00 0.00 49 1016.3
20221002224403 75 338 4.0 6.0 0.00 0.00 0.00 50 1015.9
20221002223303 76 315 4.0 7.0 0.00 0.00 0.00 49 1015.9
20221002222304 78 270 7.0 9.0 0.00 0.00 0.00 48 1015.9
20221002221203 78 293 6.0 9.0 0.00 0.00 0.00 48 1015.9
20221002220103 78 23 5.0 6.0 0.00 0.00 0.00 48 1015.9
20221002215103 77 248 5.0 8.0 0.00 0.00 0.00 50 1015.9
20221002214006 78 338 4.0 6.0 0.00 0.00 0.00 50 1015.9
20221002212903 77 315 3.0 5.0 0.00 0.00 0.00 50 1015.9
20221002211903 77 0 4.0 7.0 0.00 0.00 0.00 50 1015.9
20221002210803 77 338 3.0 7.0 0.00 0.00 0.00 50 1015.9
20221002205703 77 315 5.0 8.0 0.00 0.00 0.00 50 1015.9
20221002204605 77 248 4.0 9.0 0.00 0.00 0.00 50 1015.9
20221002203404 77 68 3.0 3.0 0.00 0.00 0.00 50 1015.9
20221002202204 77 45 4.0 5.0 0.00 0.00 0.00 50 1015.9
20221002201103 77 270 4.0 7.0 0.00 0.00 0.00 50 1015.9
20221002193802 76 225 1.0 6.0 0.00 0.00 0.00 54 1015.6
20221002192704 76 338 6.0 9.0 0.00 0.00 0.00 53 1015.6
20221002191605 75 293 5.0 6.0 0.00 0.00 0.00 54 1015.9
20221002190603 75 0 3.0 6.0 0.00 0.00 0.00 53 1015.9
20221002185504 75 45 6.0 6.0 0.00 0.00 0.00 54 1015.6
20221002184403 74 338 5.0 8.0 0.00 0.00 0.00 54 1015.9
20221002183303 74 315 2.0 5.0 0.00 0.00 0.00 54 1015.6
20221002182205 74 270 2.0 6.0 0.00 0.00 0.00 55 1015.6
20221002181103 73 90 3.0 6.0 0.00 0.00 0.00 55 1015.6
20221002180003 72 338 4.0 8.0 0.00 0.00 0.00 55 1015.6
20221002174903 72 338 2.0 5.0 0.00 0.00 0.00 59 1015.9
20221002173804 71 23 4.0 6.0 0.00 0.00 0.00 60 1015.6
20221002172704 70 23 3.0 6.0 0.00 0.00 0.00 63 1015.6
20221002171606 68 338 3.0 5.0 0.00 0.00 0.00 65 1015.2
20221002170507 66 270 2.0 4.0 0.00 0.00 0.00 71 1015.6
20221002165503 65 315 4.0 4.0 0.00 0.00 0.00 73 1015.6
20221002164402 65 270 1.0 4.0 0.00 0.00 0.00 74 1015.6
20221002162204 63 158 1.0 3.0 0.00 0.00 0.00 78 1015.2
20221002161103 61 180 1.0 2.0 0.00 0.00 0.00 80 1015.2
20221002160004 59 180 1.0 2.0 0.00 0.00 0.00 81 1014.9
20221002154902 58 293 1.0 4.0 0.00 0.00 0.00 83 1014.9
20221002153803 57 270 0.0 3.0 0.00 0.00 0.00 86 1014.9
20221002150503 55 180 0.0 0.0 0.00 0.00 0.00 88 1014.6
20221002145403 53 90 1.0 1.0 0.00 0.00 0.00 90 1014.6
20221002143004 49 180 1.0 2.0 0.00 0.00 0.00 96 1014.6
20221002135704 45 113 3.0 3.0 0.00 0.00 0.00 98 1014.2
20221002134603 45 68 0.0 0.0 0.00 0.00 0.00 98 1014.2
20221002133504 45 113 0.0 1.0 0.00 0.00 0.00 98 1014.2
20221002132304 44 113 1.0 1.0 0.00 0.00 0.00 98 1014.2
20221002131103 45 113 0.0 1.0 0.00 0.00 0.00 98 1014.2
20221002130014 45 113 0.0 1.0 0.00 0.00 0.00 98 1014.2
20221002125004 45 113 1.0 1.0 0.00 0.00 0.00 98 1014.2
20221002124003 45 158 1.0 2.0 0.00 0.00 0.00 98 1014.2
20221002122803 45 135 1.0 2.0 0.00 0.00 0.00 98 1014.2
20221002121703 45 135 1.0 1.0 0.00 0.00 0.00 98 1013.9
20221002120504 45 90 1.0 2.0 0.00 0.00 0.00 98 1013.9
20221002115402 46 158 1.0 2.0 0.00 0.00 0.00 98 1013.9
20221002114307 46 158 1.0 2.0 0.00 0.00 0.00 98 1013.9
20221002111807 46 158 1.0 1.0 0.00 0.00 0.00 98 1013.9
20221002110505 47 158 2.0 2.0 0.00 0.00 0.00 98 1014.2
20221002105310 47 158 1.0 1.0 0.00 0.00 0.00 98 1013.9
20221002104204 48 135 0.0 1.0 0.00 0.00 0.00 98 1013.9
20221002103122 49 180 1.0 2.0 0.00 0.00 0.00 96 1014.2
20221002102107 49 113 1.0 2.0 0.00 0.00 0.00 96 1013.9
20221002101104 48 180 4.0 4.0 0.00 0.00 0.00 98 1013.9
20221002100010 49 113 1.0 1.0 0.00 0.00 0.00 96 1014.2
20221002064504 51 135 2.0 3.0 0.00 0.00 0.00 96 1014.9
20221002063502 51 180 3.0 3.0 0.00 0.00 0.00 96 1014.9
20221002062402 52 158 2.0 3.0 0.00 0.00 0.00 96 1014.9
20221002061302 52 180 1.0 4.0 0.00 0.00 0.00 96 1014.9
20221002060237 51 135 1.0 3.0 0.00 0.00 0.00 98 1014.9
20221002055703 51 90 2.0 4.0 0.00 0.00 0.01 98 1014.9